COSMOS 249 DEB, 3606

Orbit data source: Space-Track

COSMOS 249 DEB, 3606 is space debris in LEO originally from a launch on Sun, 20 Oct 1968 UTC launched from the Tyuratam Missile And Space Complex (TTMTR). Debris objects in space refer to the collection of defunct objects orbiting the Earth. Examples of debris include non-operational satellites, rocket bodies, and fragments generated from explosions, collisions, or faulty payload assembly.

Loading next visibility...
Identifier
3606, 1968-091Y
Orbit
LEO
Country
Flag of CISCIS
Related business
Manufacturer
Unknown
Mission
Spacecraft
Bus & Motor
Unknown
Mass
Unknown
Launch date (UTC)
1968-10-20 (57 years ago)
Launch vehicle
Unknown
Launch site
Tyuratam Missile And Space Complex (TTMTR)
Object type
Payload
Rocket body
Debris
Shape & HBR
Unknown shape, 0.1 m
Radar Cross Section
Small (<0.1 m²)

Expand to show TLE details & history
Last TLE update: 1 day ago

TLE from 1 day ago
0 COSMOS 249 DEB
1 03606U 68091Y   25288.49059019  .00002234  00000-0  18767-2 0  9993
2 03606  62.2579   2.3489 0736643 227.8026 125.8154 13.05520498652714
Epoch: 2025-10-15T11:46Z
TLE epoch observation values (Epoch: 2025-10-15T11:46:26.992Z)
Latitude
0.00006°
Longitude
161.47255°
Altitude
1,596.066 km
Speed
6.906 km/s
True Right ascension
00h 09m 23s
True Declination
0° 00' 00"
Sunlit
Object was in full shadow at epoch
Visualization orbit readout
Latitude
Unknown
Longitude
Unknown
Altitude
Unknown
Speed
Unknown
Apparent Right ascension
Unknown
Apparent Declination
Unknown
Sunlit
N/A
Visualization observer readout
Local Sidereal Time
09:17:15
Azimuth
Unknown
Elevation
Unknown
Doppler factor
Unknown
Orbital elements
Apogee altitude
1,800.671 km
Perigee altitude
678.372 km
Semi-major axis
7,617.659 km
Eccentricity
0.07366
Inclination
62.2579°
RAAN
2.3489°
Arg. of periapsis
227.8026°
True anomaly
132.29613°
Mean anomaly
125.8154°
Eccentric anomaly
129.09123°
Mean motion
3.26446 °/min
Orbital period
110.28 mins
BSTAR
0.0018767
Loading maneuver chart data...
Computing Atmospheric mass density...
Loading historical data...
Loading historical data...
Loading historical data...
Loading historical data...
Loading historical data...
Loading historical data...
Loading historical data...

Documentation

Showing up to 5 results
|